Regional Weather Roundup
Issued by NWS Charleston, SC

Current Version | Previous Version | Graphics & Text | Print | Product List | Glossary On
Versions: 1 2 3 4 5 6 7 8 9 10 11 12 13 14 15 16 17 18 19 20 21 22 23 24 25 26 27 28 29 30 31 32 33 34 35 36 37 38 39 40 41 42 43 44 45 46 47 48 49 50
000
ASUS42 KCHS 011012
RWRCHS

REGIONAL WEATHER ROUNDUP
NATIONAL WEATHER SERVICE CHARLESTON SC
500 AM EST WED MAR 01 2017

NOTE: "FAIR" INDICATES FEW OR NO CLOUDS BELOW 12,000 FEET WITH NO
SIGNIFICANT WEATHER AND/OR OBSTRUCTIONS TO VISIBILITY.

NOT ALL STATIONS ARE QUALITY CONTROLLED. USE DATA WITH CAUTION...
ESPECIALLY DEWPOINT OBSERVATIONS.

SCZ027-030-031-034>040-042>050-011100-
...SOUTHEAST SOUTH CAROLINA...

CITY           SKY/WX    TMP DP  RH WIND       PRES   REMARKS
N CHARLESTON   CLOUDY    69  66  90 S13       30.10S
WATERFRONT PRK   N/A     68  68 100 SW9       30.10S
MOUNT PLEASANT CLOUDY    70  70 100 S10G22    30.11F
JOHNS ISLAND   CLOUDY    66  66 100 S9        30.11F
PINOPOLIS        N/A     70  68  94 SW8G15    30.00F
MONCKS CORNER  FAIR      68  66  94 S10G17    30.08F
SUMMERVILLE    FAIR      68  64  88 S6        30.09F
BEAUFORT MCAS  MOCLDY    69  67  93 S8        30.10S
BEAUFORT ARPT  FAIR      70  64  83 SW10G20   30.10F
HILTON HEAD IS CLOUDY    70  68  94 S15       30.12S
WALTERBORO     CLOUDY    66  64  94 S8        30.10F
ALLENDALE      CLOUDY    66  66 100 VRB3      30.08R

...SOUTHERN MIDLANDS AND PEE DEE...

CITY           SKY/WX    TMP DP  RH WIND       PRES   REMARKS
GEORGETOWN     CLOUDY    68  68 100 SW12      30.11F
KINGSTREE      CLOUDY    68  64  88 S9G17     30.07F
ORANGEBURG     CLOUDY    67  65  93 SW10      30.08S
BARNWELL       FAIR      66  66 100 S6        30.08S
AIKEN          FAIR      63  59  88 SW9       30.10S
MANNING        FAIR      64  50  59 MISG      30.07S
COLUMBIA       CLOUDY    65  62  90 S5        30.05R
SUMTER         CLOUDY    66  64  94 S12       30.04S
FLORENCE       MOCLDY    67  66  97 S10       30.06F
MYRTLE BEACH   CLOUDY    67  66  97 S9        30.10F
N MYRTLE BEACH FOG       64  64 100 SW12      30.09F VSB 3/4

$$

GAZ063-065-086>088-099>101-113>116-118-119-134>141-150-011100-
...SOUTHEAST GEORGIA...

CITY           SKY/WX    TMP DP  RH WIND       PRES   REMARKS
SAVANNAH ARPT  PTCLDY    68  65  90 S7        30.11S
HUNTER AAF     CLOUDY    69  69 100 S6        30.08S
FORT STEWART   MOCLDY    66  65  94 CALM      30.09S
STATESBORO     MOCLDY    66  32  28 S3        30.10S
SYLVANIA       MOSUNNY  N/A N/A N/A SW3       30.11R FOG
CLAXTON        FAIR     N/A N/A N/A CALM      30.11S

...CSRA...CENTRAL AND FAR SOUTHEAST GEORGIA...

CITY           SKY/WX    TMP DP  RH WIND       PRES   REMARKS
THOMSON        PTCLDY    62  62  99 CALM      30.11S
AUGUSTA-BUSH   CLEAR     60  57  89 S3        30.07R FOG
AUGUSTA-DANIEL CLEAR     65  59  81 S7        30.07S
SWAINSBORO     FAIR      63  61  94 CALM      30.11R
VIDALIA        CLOUDY    64  64 100 SW3       30.12R
EASTMAN        FAIR      65  65 100 CALM      30.13R
HAZLEHURST     FAIR      65  65 100 S6        30.10S
ALMA           CLOUDY    63  62  97 S3        30.12S
WAYCROSS       CLOUDY    68  68 100 SW6       30.12S
JESUP          FAIR      64  63  94 CALM      30.12S FOG
BAXLEY         FAIR      63  63 100 CALM      30.11F
BRUNSWICK      PTCLDY    70  68  94 S7        30.13S
SAINT SIMONS   PTCLDY    69  66  90 S5        30.12S

$$

SCZ027-028-034-036>038-045-046-048>050-GAZ119-141-011100-
...LAKE AND SUPPLEMENTAL COASTAL OBSERVATIONS...

STATION/POSITION TIME  TEMP    WIND        PRES    WAVE   SWELL
                       AIR SEA DIR/SP/G            HT/PER HT/PER/DIR
                 (UTC) (F)     (DEG/KT/KT) (MB)    (FT/S) (FT/S/D)
WINYAH BAY       0845   67     200/  7     1019.0
LAKE MURRAY      0920   63     210/  2/  7 1016.9
ACE BASIN NERRS  NOT AVBL
FORT PULASKI     0948   69 64  220/  8/ 12 1019.9R
SAPELO ISLAND    0900   69     190/  8     1020.0

$$

ANZ835-935-AMZ111-154-330-350-352-354-370-450-454-472-011100-
...C-MAN AND BUOY OBSERVATIONS...

STATION/POSITION TIME  TEMP    WIND        PRES    WAVE   SWELL
                       AIR SEA DIR/SP/G            HT/PER HT/PER/DIR
                 (UTC) (F)     (DEG/KT/KT) (MB)    (FT/S) (FT/S/D)
BUOY 41004       0850   71 69  190/ 14/ 16 1019.7    5/ 6   2/140/ 8
BUOY 41008       0950   66 63  180/ 12/ 14 1019.7S   3/ 6   2/ 70/ 8
FOLLY BEACH CMAN 0900   64     210/  6/  7 1020.5F
CAPERS NEARSHORE 0908   63 62  200/  6/  8 1019.9F
FRIPP NEARSHORE  0908   65 62  220/ 12/ 14 1019.5S


STATION/POSITION TIME  TEMP    WIND        PRES    WAVE   SWELL
                       AIR SEA DIR/SP/G            HT/PER HT/PER/DIR
                 (UTC) (F)     (DEG/KT/KT) (MB)    (FT/S) (FT/S/D)
5E ST. MARYS GA  0930      65                N/A     3/ 6
FRYING PAN BUOY  0950   71 69  190/ 16/ 19 1019.9F   4/ 6
BUOY 41025       0950   73 74  210/ 25/ 29 1018.7R   6/ 7   3/150/ 7
CAPE LOOKOUT NC  0900   67     200/ 14/ 18 1018.8F
BUOY 41002       0950   70 71  160/ 12/ 14 1023.5F   4/ 6   3/130/ 6
BUOY 41010       NOT AVBL
ST AUGUSTINE FL  1000   67 69  200/  5/  6 1021.7R


$$



USA.gov is the U.S. government's official web portal to all federal, state and local government web resources and services.